Weather History for Colorado Springs, CO

Change the Weather History Date:

Thursday, July 4, 2013

  Actual Average Record
Temperature  
Mean Temperature 74 °F 70 °F  
Max Temperature 90 °F 85 °F 99 °F (1964)
Min Temperature 57 °F 56 °F 37 °F (1903)
Degree Days  
Heating Degree Days 0 0  
Month to date heating degree days 2 3  
Since 1 June heating degree days 27 82  
Since 1 July heating degree days 2 3  
Cooling Degree Days 9 6  
Month to date cooling degree days 13 22  
Year to date cooling degree days 217 115  
Since 1 June cooling degree days 195 105  
Growing Degree Days 24 (Base 50)    
Moisture  
Dew Point 39 °F    
Average Humidity 37    
Maximum Humidity 62    
Minimum Humidity 12    
Precipitation  
Precipitation T in 0.07 in 1.07 in (2009)
Month to date precipitation 0.02 0.28  
Year to date precipitation 3.35 7.89  
Snow  
Snow 0.00 in 0.00 in 0.00 in (2002)
Month to date snowfall 0.0 0.0  
Since 1 June snowfall 0.0 0.0  
Since 1 July snowfall 0.0 0.0  
Snow Depth 0.00 in    
Sea Level Pressure  
Sea Level Pressure 29.80 in    
Wind  
Wind Speed 10 mph (North)    
Max Wind Speed 28 mph    
Max Gust Speed 32 mph    
Visibility 10 miles    
Events Rain    
T = Trace of Precipitation, MM = Missing Value Source: NWS Daily Summary

Daily Weather History Graph

Daily Weather History Graph

Search for Another Location

Airport:

Trip Planner

Search our weather history database for the weather conditions in past years. The results will help you decide how hot, cold, wet, or windy it might be!

Date:

Astronomy

Jul. 04, 2013 Rise Set
Actual Time 5:39 AM MDT 8:27 PM MDT
Civil Twilight 5:07 AM MDT 8:58 PM MDT
Nautical Twilight 4:27 AM MDT 9:38 PM MDT
Astronomical Twilight 3:42 AM MDT 10:23 PM MDT
Moon 2:56 AM MDT (7/4) 5:34 PM MDT (7/4)
Length of Visible Light 15h 51m
Length of Day
14h 48m
Waning Crescent, 11% of the Moon is Illuminated
Jul 4
Waning Crescent
Jul 8
New
Jul 15
First Quarter
Jul 22
Full
Jul 29
Last Quarter

Hourly Weather History & Observations

Time (MDT) Temp. Dew Point Humidity Pressure Visibility Wind Dir Wind Speed Gust Speed Precip Events Conditions
12:54 AM 59.0 °F 46.9 °F 64% 29.85 in 10.0 mi NNE 5.8 mph - N/A   Clear
1:54 AM 59.0 °F 46.9 °F 64% 29.83 in 10.0 mi NNE 9.2 mph - N/A   Clear
2:54 AM 59.0 °F 46.9 °F 64% 29.83 in 10.0 mi North 5.8 mph - N/A   Clear
3:54 AM 63.0 °F 45.0 °F 52% 29.80 in 10.0 mi NW 9.2 mph - N/A   Clear
4:54 AM 63.0 °F 42.1 °F 46% 29.78 in 10.0 mi NW 6.9 mph - N/A   Clear
5:54 AM 66.0 °F 39.9 °F 38% 29.79 in 10.0 mi NNW 12.7 mph - N/A   Partly Cloudy
6:54 AM 70.0 °F 39.9 °F 33% 29.81 in 10.0 mi NNW 12.7 mph - N/A   Partly Cloudy
7:54 AM 75.0 °F 39.9 °F 28% 29.81 in 10.0 mi NNW 12.7 mph - N/A   Partly Cloudy
8:54 AM 79.0 °F 39.0 °F 24% 29.82 in 10.0 mi North 16.1 mph 23.0 mph N/A   Partly Cloudy
9:54 AM 82.0 °F 37.0 °F 20% 29.82 in 10.0 mi North 13.8 mph - N/A   Partly Cloudy
10:54 AM 84.0 °F 33.1 °F 16% 29.81 in 10.0 mi North 16.1 mph 20.7 mph N/A   Partly Cloudy
11:54 AM 86.0 °F 30.9 °F 14% 29.82 in 10.0 mi NNW 15.0 mph 21.9 mph N/A   Scattered Clouds
12:54 PM 86.0 °F 33.1 °F 15% 29.81 in 10.0 mi NNW 18.4 mph 24.2 mph N/A   Scattered Clouds
1:54 PM 88.0 °F 33.1 °F 14% 29.79 in 10.0 mi NNE 11.5 mph 24.2 mph N/A   Scattered Clouds
2:54 PM 90.0 °F 33.1 °F 13% 29.77 in 10.0 mi WNW 10.4 mph 19.6 mph N/A   Scattered Clouds
3:15 PM 89.6 °F 32.0 °F 13% 30.05 in 10.0 mi ENE 12.7 mph 17.3 mph N/A   Scattered Clouds
3:54 PM 89.1 °F 30.9 °F 12% 29.74 in 10.0 mi ENE 10.4 mph 18.4 mph N/A   Scattered Clouds
4:54 PM 86.0 °F 30.9 °F 14% 29.74 in 10.0 mi ENE 8.1 mph - N/A   Mostly Cloudy
5:54 PM 84.9 °F 30.9 °F 14% 29.74 in 10.0 mi Variable 4.6 mph - 0.00 in Rain Light Rain
6:54 PM 77.0 °F 42.1 °F 29% 29.78 in 10.0 mi West 25.3 mph 32.2 mph 0.00 in   Mostly Cloudy
7:54 PM 75.0 °F 43.0 °F 32% 29.77 in 10.0 mi NW 11.5 mph - N/A   Scattered Clouds
8:54 PM 73.9 °F 43.0 °F 33% 29.77 in 10.0 mi NW 8.1 mph - N/A   Scattered Clouds
9:54 PM 73.9 °F 44.1 °F 34% 29.76 in 10.0 mi Calm Calm - N/A   Scattered Clouds
10:54 PM 71.1 °F 42.1 °F 35% 29.77 in 10.0 mi Calm Calm - N/A   Partly Cloudy
11:54 PM 66.0 °F 43.0 °F 43% 29.77 in 10.0 mi NE 5.8 mph - N/A   Partly Cloudy